Regional Weather Roundup
Issued by NWS Albany, NY

Home | Current Version | Previous Version | Text Only | Print | Product List | Glossary On
Versions: 1 2 3 4 5 6 7 8 9 10 11 12 13 14 15 16 17 18 19 20 21 22 23 24 25 26 27
000
ASUS41 KALY 231710
RWRALY

NEW YORK STATE HOURLY WEATHER ROUNDUP
NATIONAL WEATHER SERVICE ALBANY NY
100 PM EDT MON APR 23 2018

NOTE: "FAIR" INDICATES FEW OR NO CLOUDS BELOW 12,000 FEET WITH NO
SIGNIFICANT WEATHER AND/OR NO OBSTRUCTIONS TO VISIBILITY.

NYZ032-033-038>043-046>054-057>066-NYZ062>081-082-084-231800-
EAST


CITY           SKY/WX    TMP DP  RH WIND       PRES   REMARKS
ALBANY         FAIR      62  16  16 VRB3      30.45F
GLENS FALLS    FAIR      59  18  20 NE5       30.44F
POUGHKEEPSIE   FAIR      62  22  21 VRB3      30.44F
NEWBURGH       SUNNY     63  21  20 VRB5      30.46F
MONTGOMERY     FAIR      63  18  17 CALM      30.43F
WHITE PLAINS   FAIR      60  16  18 VRB5      30.45F
ISLIP          FAIR      58  25  28 E12       30.48F
NEW YORK CITY  FAIR      58  31  35 NE13      30.47F
CENTRAL PARK   FAIR      64  20  18 NE6       30.48F
$$

NYZ005>009-017-018-044>046-055-056-231800-
CENTRAL


CITY           SKY/WX    TMP DP  RH WIND       PRES   REMARKS
FULTON         FAIR      63  23  21 SE7       30.39F
SYRACUSE       FAIR      65  22  19 NW3       30.39F
ROME           FAIR      63  17  17 SE8       30.42F
ELMIRA         FAIR      66  24  20 VRB3      30.36F
BINGHAMTON     FAIR      60  18  19 SW6       30.39F
MONTICELLO     FAIR      60  16  18 E6        30.43F
$$

NYZ026>034-041>043-087-231800-
NORTH


CITY           SKY/WX    TMP DP  RH WIND       PRES   REMARKS
WATERTOWN      FAIR      63  20  19 SW8       30.39F
FORT DRUM      NOT AVBL
OGDENSBURG     FAIR      65  19  16 CALM      30.41F
MASSENA        FAIR      63  21  20 VRB3      30.42F
SARANAC LAKE   FAIR      56   9  15 VRB3      30.39F
PLATTSBURGH    FAIR      58  13  17 SE12      30.43F
$$

NYZ001>004-010>016-019>021-085-231800-
WEST


CITY           SKY/WX    TMP DP  RH WIND       PRES   REMARKS
NIAGARA FALLS  FAIR      70  26  19 SE7G20    30.31F
BUFFALO        FAIR      67  23  19 E15G21    30.32F
DUNKIRK        FAIR      68  35  29 E10       30.29F
JAMESTOWN      FAIR      64  35  34 MISG        N/A
WELLSVILLE     FAIR      65  28  24 SE12G20   30.35F
ROCHESTER      FAIR      66  23  19 SE7       30.36F
PENN YAN       FAIR      65  20  17 SW7       30.37F
$$

             KEY
       WCI = WIND CHILL INDEX
       VSB = VISIBILITY
       HX  = HEAT INDEX
$$




USA.gov is the U.S. government's official web portal to all federal, state and local government web resources and services.